| time (UTC) | temp C | wind direction | speed KPH | gust KPH | rain 1hr cm | rain 24hr cm | rain mn cm | humidity % | barometer mb |
| 20260504235020 | 25 | 165 | 3.2 | 6.4 | 0.00 | 1.27 | 1.27 | 51 | 1011.1 |
| 20260504234521 | 25 | 157 | 3.2 | 6.4 | 0.00 | 1.27 | 1.27 | 51 | 1010.1 |
| 20260504234021 | 25 | 170 | 3.2 | 8.0 | 0.00 | 1.27 | 1.27 | 51 | 1009.8 |
| 20260504233523 | 25 | 170 | 3.2 | 8.0 | 0.00 | 1.27 | 1.27 | 50 | 1008.6 |
| 20260504233024 | 25 | 170 | 3.2 | 6.4 | 0.00 | 1.27 | 1.27 | 50 | 1009.7 |
| 20260504232525 | 26 | 157 | 4.8 | 9.7 | 0.00 | 1.27 | 1.27 | 49 | 1008.1 |
| 20260504232044 | 26 | 177 | 3.2 | 12.9 | 0.00 | 1.27 | 1.27 | 50 | 1008.9 |
| 20260504231521 | 25 | 167 | 3.2 | 8.0 | 0.00 | 1.27 | 1.27 | 51 | 1010.9 |
| 20260504231021 | 25 | 161 | 4.8 | 9.7 | 0.00 | 1.27 | 1.27 | 50 | 1008.7 |
| 20260504230521 | 25 | 157 | 3.2 | 8.0 | 0.00 | 1.27 | 1.27 | 52 | 1012.2 |
| 20260504230021 | 25 | 161 | 3.2 | 8.0 | 0.00 | 1.27 | 1.27 | 54 | 1016.9 |
| 20260504225521 | 25 | 164 | 3.2 | 9.7 | 0.00 | 1.27 | 1.27 | 56 | 1020.9 |
| 20260504225022 | 25 | 164 | 1.6 | 3.2 | 0.00 | 1.27 | 1.27 | 58 | 1023.2 |
| 20260504224523 | 25 | 182 | 1.6 | 4.8 | 0.00 | 1.27 | 1.27 | 58 | 1025.2 |
| 20260504224022 | 25 | 172 | 1.6 | 4.8 | 0.00 | 1.27 | 1.27 | 59 | 1024.4 |
| 20260504223542 | 25 | 174 | 1.6 | 3.2 | 0.00 | 1.27 | 1.27 | 60 | 1026.6 |
| 20260504223044 | 25 | 162 | 0.0 | 3.2 | 0.00 | 1.27 | 1.27 | 59 | 1026.0 |
| 20260504222521 | 25 | 162 | 1.6 | 4.8 | 0.00 | 1.27 | 1.27 | 60 | 1027.0 |
| 20260504222022 | 25 | 37 | 0.0 | 1.6 | 0.00 | 1.27 | 1.27 | 60 | 1028.1 |
| 20260504221545 | 25 | 184 | 1.6 | 4.8 | 0.00 | 1.27 | 1.27 | 58 | 1024.5 |
| 20260504221022 | 25 | 188 | 1.6 | 3.2 | 0.00 | 1.27 | 1.27 | 59 | 1025.7 |
| 20260504220522 | 25 | 164 | 1.6 | 4.8 | 0.00 | 1.27 | 1.27 | 59 | 1025.4 |
| 20260504220043 | 25 | 178 | 3.2 | 6.4 | 0.00 | 1.27 | 1.27 | 59 | 1025.6 |
| 20260504215603 | 25 | 179 | 1.6 | 4.8 | 0.00 | 1.27 | 1.27 | 59 | 1025.0 |
| 20260504215043 | 25 | 192 | 1.6 | 6.4 | 0.00 | 1.27 | 1.27 | 59 | 1024.3 |
| 20260504214523 | 25 | 178 | 3.2 | 6.4 | 0.00 | 1.27 | 1.27 | 59 | 1023.1 |
| 20260504214021 | 24 | 183 | 1.6 | 4.8 | 0.00 | 1.27 | 1.27 | 60 | 1027.2 |
| 20260504213519 | 24 | 187 | 1.6 | 6.4 | 0.00 | 1.27 | 1.27 | 61 | 1028.9 |
| 20260504213044 | 23 | 182 | 3.2 | 9.7 | 0.00 | 1.27 | 1.27 | 61 | 1028.0 |
| 20260504212523 | 23 | 182 | 3.2 | 9.7 | 0.00 | 1.27 | 1.27 | 62 | 1028.5 |
| 20260504212024 | 23 | 182 | 1.6 | 8.0 | 0.00 | 1.27 | 1.27 | 63 | 1029.2 |
| 20260504211523 | 23 | 185 | 3.2 | 6.4 | 0.00 | 1.27 | 1.27 | 64 | 1029.3 |
| 20260504211024 | 23 | 178 | 1.6 | 9.7 | 0.00 | 1.27 | 1.27 | 65 | 1028.3 |
| 20260504210523 | 23 | 175 | 1.6 | 4.8 | 0.00 | 1.27 | 1.27 | 66 | 1026.5 |
| 20260504210020 | 23 | 187 | 3.2 | 6.4 | 0.00 | 1.27 | 1.27 | 65 | 1027.6 |
| 20260504205520 | 22 | 175 | 3.2 | 4.8 | 0.00 | 1.27 | 1.27 | 68 | 1023.4 |
| 20260504205041 | 22 | 169 | 3.2 | 6.4 | 0.00 | 1.27 | 1.27 | 71 | 1022.4 |
| 20260504204520 | 21 | 180 | 3.2 | 8.0 | 0.00 | 1.27 | 1.27 | 72 | 1022.4 |
| 20260504204041 | 21 | 169 | 3.2 | 6.4 | 0.00 | 1.27 | 1.27 | 74 | 1023.3 |
| 20260504203540 | 21 | 201 | 3.2 | 6.4 | 0.00 | 1.27 | 1.27 | 77 | 1027.4 |
| 20260504203025 | 20 | 203 | 4.8 | 9.7 | 0.00 | 1.27 | 1.27 | 82 | 1034.3 |
| 20260504202526 | 20 | 214 | 4.8 | 8.0 | 0.00 | 1.27 | 1.27 | 82 | 1034.7 |
| 20260504202044 | 20 | 216 | 3.2 | 6.4 | 0.00 | 1.27 | 1.27 | 83 | 1036.2 |
| 20260504201521 | 19 | 227 | 3.2 | 8.0 | 0.00 | 1.27 | 1.27 | 86 | 1038.5 |
| 20260504201022 | 18 | 274 | 3.2 | 6.4 | 0.00 | 1.27 | 1.27 | 87 | 1038.5 |
| 20260504200541 | 18 | 276 | 3.2 | 4.8 | 0.00 | 1.27 | 1.27 | 89 | 1037.5 |
| 20260504200022 | 18 | 309 | 3.2 | 6.4 | 0.00 | 1.27 | 1.27 | 92 | 1036.0 |
| 20260504195521 | 18 | 313 | 1.6 | 6.4 | 0.03 | 1.27 | 1.27 | 92 | 1035.2 |
| 20260504195041 | 18 | 314 | 1.6 | 8.0 | 0.08 | 1.27 | 1.27 | 91 | 1033.6 |
| 20260504194521 | 17 | 313 | 3.2 | 4.8 | 0.08 | 1.27 | 1.27 | 92 | 1033.4 |
| 20260504194022 | 17 | 319 | 3.2 | 4.8 | 0.28 | 1.27 | 1.27 | 93 | 1034.3 |
| 20260504193623 | 17 | 327 | 4.8 | 6.4 | 0.36 | 1.27 | 1.27 | 93 | 1034.5 |
| 20260504193022 | 16 | 331 | 4.8 | 6.4 | 0.48 | 1.27 | 1.27 | 92 | 1033.8 |
| 20260504192522 | 16 | 338 | 4.8 | 6.4 | 0.99 | 1.27 | 1.27 | 92 | 1033.9 |
| 20260504192022 | 16 | 10 | 4.8 | 6.4 | 1.22 | 1.27 | 1.27 | 92 | 1034.6 |
| 20260504191522 | 16 | 24 | 3.2 | 4.8 | 1.22 | 1.27 | 1.27 | 94 | 1035.7 |
| 20260504191023 | 16 | 226 | 4.8 | 6.4 | 1.22 | 1.27 | 1.27 | 94 | 1035.7 |
| 20260504190523 | 16 | 226 | 9.7 | 30.6 | 1.22 | 1.27 | 1.27 | 94 | 1035.5 |
| 20260504190023 | 16 | 226 | 8.0 | 24.1 | 1.22 | 1.27 | 1.27 | 94 | 1036.8 |
| 20260504185543 | 16 | 230 | 8.0 | 12.9 | 1.19 | 1.24 | 1.24 | 93 | 1039.4 |
| 20260504185020 | 16 | 219 | 4.8 | 9.7 | 1.17 | 1.22 | 1.22 | 93 | 1042.0 |
| 20260504184521 | 16 | 224 | 6.4 | 12.9 | 1.14 | 1.19 | 1.19 | 91 | 1044.7 |
| 20260504184043 | 16 | 219 | 4.8 | 14.5 | 0.97 | 0.99 | 0.99 | 91 | 1046.7 |
| 20260504183543 | 16 | 105 | 4.8 | 11.3 | 0.89 | 0.94 | 0.94 | 89 | 1047.9 |
| 20260504183023 | 17 | 205 | 3.2 | 12.9 | 0.74 | 0.79 | 0.79 | 87 | 1046.2 |
| 20260504182523 | 17 | 173 | 1.6 | 4.8 | 0.23 | 0.28 | 0.28 | 80 | 1035.9 |
| 20260504182023 | 17 | 210 | 1.6 | 3.2 | 0.03 | 0.05 | 0.05 | 76 | 1031.4 |
| 20260504181520 | 17 | 6 | 3.2 | 4.8 | 0.00 | 0.05 | 0.05 | 76 | 1030.7 |
| 20260504181020 | 17 | 4 | 3.2 | 4.8 | 0.00 | 0.05 | 0.05 | 77 | 1032.4 |
| 20260504180520 | 17 | 3 | 4.8 | 6.4 | 0.03 | 0.05 | 0.05 | 78 | 1035.0 |
| 20260504180021 | 17 | 11 | 3.2 | 6.4 | 0.03 | 0.05 | 0.05 | 77 | 1031.9 |
| 20260504175603 | 17 | 10 | 3.2 | 4.8 | 0.03 | 0.05 | 0.05 | 75 | 1027.8 |
| 20260504175024 | 17 | 7 | 1.6 | 4.8 | 0.03 | 0.05 | 0.05 | 74 | 1026.4 |
| 20260504174524 | 17 | 36 | 1.6 | 4.8 | 0.05 | 0.05 | 0.05 | 76 | 1030.7 |
| 20260504174042 | 17 | 208 | 1.6 | 4.8 | 0.05 | 0.05 | 0.05 | 79 | 1034.5 |
| 20260504173521 | 17 | 139 | 1.6 | 4.8 | 0.05 | 0.05 | 0.05 | 77 | 1031.1 |
| 20260504173022 | 18 | 323 | 1.6 | 4.8 | 0.05 | 0.05 | 0.05 | 75 | 1027.8 |
| 20260504172541 | 18 | 8 | 3.2 | 4.8 | 0.05 | 0.05 | 0.05 | 74 | 1025.8 |
| 20260504172121 | 18 | 264 | 1.6 | 4.8 | 0.05 | 0.05 | 0.05 | 70 | 1023.1 |
| 20260504171523 | 18 | 185 | 1.6 | 3.2 | 0.05 | 0.05 | 0.05 | 69 | 1023.2 |
| 20260504171022 | 18 | 154 | 3.2 | 8.0 | 0.03 | 0.03 | 0.03 | 68 | 1024.2 |
| 20260504170521 | 18 | 169 | 3.2 | 6.4 | 0.03 | 0.03 | 0.03 | 66 | 1026.2 |
| 20260504151024 | 20 | 193 | 1.6 | 4.8 | 0.00 | 0.00 | 0.00 | 60 | 1029.2 |
| 20260504150524 | 20 | 193 | 1.6 | 1.6 | 0.00 | 0.00 | 0.00 | 60 | 1027.5 |
| 20260504141024 | 20 | 172 | 4.8 | 9.7 | 0.00 | 0.00 | 0.00 | 58 | 1021.0 |
| 20260504140542 | 20 | 166 | 3.2 | 9.7 | 0.00 | 0.00 | 0.00 | 59 | 1024.9 |
| 20260504130527 | 17 | 178 | 3.2 | 4.8 | 0.00 | 0.00 | 0.00 | 66 | 1028.2 |
| 20260504110547 | 14 | 223 | 1.6 | 6.4 | 0.00 | 0.00 | 0.00 | 76 | 1030.5 |
| 20260504100529 | 15 | 220 | 1.6 | 3.2 | 0.00 | 0.00 | 0.00 | 71 | 1024.7 |
| 20260504081530 | 16 | 222 | 1.6 | 1.6 | 0.00 | 0.00 | 0.00 | 69 | 1026.4 |
| 20260504081051 | 16 | 223 | 1.6 | 3.2 | 0.00 | 0.00 | 0.00 | 68 | 1026.7 |
| 20260504080531 | 16 | 223 | 1.6 | 6.4 | 0.00 | 0.00 | 0.00 | 68 | 1027.1 |
| 20260504050523 | 18 | 163 | 1.6 | 6.4 | 0.00 | 0.00 | 0.00 | 55 | 1020.5 |
| 20260504050023 | 18 | 189 | 1.6 | 6.4 | 0.00 | 0.00 | 0.00 | 55 | 1019.6 |
| 20260504045603 | 19 | 187 | 1.6 | 4.8 | 0.00 | 0.00 | 0.00 | 55 | 1019.7 |
| 20260504045022 | 19 | 174 | 3.2 | 6.4 | 0.00 | 0.00 | 0.00 | 54 | 1018.8 |
| 20260504044523 | 19 | 167 | 3.2 | 8.0 | 0.00 | 0.00 | 0.00 | 54 | 1017.5 |
| 20260504044020 | 19 | 160 | 4.8 | 9.7 | 0.00 | 0.00 | 0.00 | 53 | 1016.8 |
| 20260504043522 | 19 | 175 | 3.2 | 11.3 | 0.00 | 0.00 | 0.00 | 54 | 1017.5 |
| 20260504043025 | 19 | 167 | 3.2 | 9.7 | 0.00 | 0.00 | 0.00 | 53 | 1016.7 |
| 20260504042523 | 20 | 162 | 3.2 | 8.0 | 0.00 | 0.00 | 0.00 | 53 | 1015.6 |
| 20260504042045 | 20 | 183 | 1.6 | 6.4 | 0.00 | 0.00 | 0.00 | 53 | 1016.1 |
| 20260504041524 | 20 | 170 | 3.2 | 8.0 | 0.00 | 0.00 | 0.00 | 52 | 1015.1 |
| 20260504041022 | 20 | 175 | 3.2 | 8.0 | 0.00 | 0.00 | 0.00 | 51 | 1014.4 |
| 20260504040520 | 20 | 176 | 1.6 | 3.2 | 0.00 | 0.00 | 0.00 | 51 | 1013.5 |
| 20260504040024 | 20 | 164 | 3.2 | 11.3 | 0.00 | 0.00 | 0.00 | 50 | 1013.1 |
| 20260504035602 | 20 | 176 | 1.6 | 6.4 | 0.00 | 0.00 | 0.00 | 51 | 1014.0 |
| 20260504035020 | 20 | 170 | 3.2 | 8.0 | 0.00 | 0.00 | 0.00 | 51 | 1014.2 |
| 20260504034521 | 20 | 176 | 3.2 | 8.0 | 0.00 | 0.00 | 0.00 | 51 | 1014.0 |
| 20260504034025 | 20 | 158 | 3.2 | 8.0 | 0.00 | 0.00 | 0.00 | 51 | 1013.6 |
| 20260504033521 | 19 | 174 | 1.6 | 4.8 | 0.00 | 0.00 | 0.00 | 52 | 1016.0 |
| 20260504033041 | 19 | 166 | 1.6 | 4.8 | 0.00 | 0.00 | 0.00 | 52 | 1016.4 |
| 20260504032522 | 19 | 163 | 1.6 | 6.4 | 0.00 | 0.00 | 0.00 | 52 | 1016.1 |
| 20260504032024 | 19 | 189 | 1.6 | 3.2 | 0.00 | 0.00 | 0.00 | 52 | 1016.3 |
| 20260504031521 | 19 | 173 | 1.6 | 4.8 | 0.00 | 0.00 | 0.00 | 52 | 1015.3 |
| 20260504031023 | 20 | 189 | 1.6 | 4.8 | 0.00 | 0.00 | 0.00 | 52 | 1015.9 |
| 20260504030522 | 20 | 161 | 1.6 | 4.8 | 0.00 | 0.00 | 0.00 | 51 | 1014.0 |
| 20260504030021 | 20 | 166 | 1.6 | 6.4 | 0.00 | 0.00 | 0.00 | 51 | 1013.4 |
| 20260504025522 | 20 | 180 | 1.6 | 4.8 | 0.00 | 0.00 | 0.00 | 50 | 1013.3 |
| 20260504025022 | 20 | 176 | 1.6 | 4.8 | 0.00 | 0.00 | 0.00 | 50 | 1012.8 |
| 20260504024544 | 20 | 162 | 3.2 | 6.4 | 0.00 | 0.00 | 0.00 | 50 | 1012.4 |
| 20260504024022 | 20 | 173 | 3.2 | 6.4 | 0.00 | 0.00 | 0.00 | 50 | 1013.1 |
| 20260504023522 | 20 | 170 | 1.6 | 6.4 | 0.00 | 0.00 | 0.00 | 50 | 1012.7 |
| 20260504023022 | 20 | 159 | 1.6 | 8.0 | 0.00 | 0.00 | 0.00 | 49 | 1012.0 |
| 20260504022522 | 20 | 163 | 1.6 | 4.8 | 0.00 | 0.00 | 0.00 | 49 | 1011.7 |
| 20260504022024 | 20 | 175 | 1.6 | 4.8 | 0.00 | 0.00 | 0.00 | 48 | 1011.6 |
| 20260504021522 | 20 | 179 | 1.6 | 4.8 | 0.00 | 0.00 | 0.00 | 48 | 1011.1 |
| 20260504021025 | 20 | 189 | 1.6 | 4.8 | 0.00 | 0.00 | 0.00 | 48 | 1011.2 |
| 20260504020520 | 20 | 179 | 1.6 | 3.2 | 0.00 | 0.00 | 0.00 | 47 | 1010.8 |
| 20260504020024 | 21 | 197 | 1.6 | 3.2 | 0.00 | 0.00 | 0.00 | 47 | 1011.0 |
| 20260504015545 | 21 | 195 | 1.6 | 3.2 | 0.00 | 0.00 | 0.00 | 47 | 1010.7 |
| 20260504015045 | 21 | 191 | 1.6 | 3.2 | 0.00 | 0.00 | 0.00 | 47 | 1010.4 |
| 20260504014604 | 21 | 184 | 1.6 | 4.8 | 0.00 | 0.00 | 0.00 | 46 | 1010.2 |
| 20260504014023 | 21 | 188 | 1.6 | 4.8 | 0.00 | 0.00 | 0.00 | 46 | 1010.1 |
| 20260504013523 | 21 | 187 | 1.6 | 4.8 | 0.00 | 0.00 | 0.00 | 46 | 1009.9 |
| 20260504013023 | 21 | 193 | 1.6 | 4.8 | 0.00 | 0.00 | 0.00 | 45 | 1009.9 |
| 20260504012543 | 21 | 173 | 1.6 | 4.8 | 0.00 | 0.00 | 0.00 | 45 | 1009.7 |
| 20260504012101 | 22 | 189 | 1.6 | 3.2 | 0.00 | 0.00 | 0.00 | 44 | 1009.6 |
| 20260504011520 | 22 | 182 | 1.6 | 4.8 | 0.00 | 0.00 | 0.00 | 44 | 1009.6 |
| 20260504011020 | 22 | 173 | 1.6 | 4.8 | 0.00 | 0.00 | 0.00 | 44 | 1009.4 |
| 20260504010540 | 22 | 187 | 1.6 | 3.2 | 0.00 | 0.00 | 0.00 | 43 | 1009.3 |
| 20260504010023 | 22 | 167 | 1.6 | 4.8 | 0.00 | 0.00 | 0.00 | 43 | 1009.2 |
| 20260504005524 | 22 | 170 | 1.6 | 4.8 | 0.00 | 0.00 | 0.00 | 43 | 1009.2 |
| 20260504005024 | 22 | 179 | 1.6 | 4.8 | 0.00 | 0.00 | 0.00 | 42 | 1009.0 |
| 20260504004544 | 22 | 189 | 1.6 | 3.2 | 0.00 | 0.00 | 0.00 | 42 | 1009.1 |
| 20260504004023 | 23 | 180 | 1.6 | 4.8 | 0.00 | 0.00 | 0.00 | 41 | 1008.9 |
| 20260504003523 | 23 | 184 | 1.6 | 4.8 | 0.00 | 0.00 | 0.00 | 41 | 1008.9 |
| 20260504003022 | 23 | 166 | 3.2 | 6.4 | 0.00 | 0.00 | 0.00 | 40 | 1008.8 |
| 20260504002542 | 23 | 169 | 1.6 | 4.8 | 0.00 | 0.00 | 0.00 | 40 | 1008.8 |
| 20260504002022 | 23 | 171 | 3.2 | 6.4 | 0.00 | 0.00 | 0.00 | 40 | 1008.8 |
| 20260504001523 | 23 | 176 | 1.6 | 4.8 | 0.00 | 0.00 | 0.00 | 40 | 1008.8 |
| 20260504001021 | 23 | 170 | 3.2 | 8.0 | 0.00 | 0.00 | 0.00 | 39 | 1008.6 |
| 20260504000522 | 23 | 180 | 1.6 | 6.4 | 0.00 | 0.00 | 0.00 | 39 | 1008.7 |
| 20260504000023 | 23 | 157 | 4.8 | 9.7 | 0.00 | 0.00 | 0.00 | 38 | 1008.6 |
| 20260503235523 | 23 | 172 | 1.6 | 6.4 | 0.00 | 0.00 | 0.00 | 38 | 1008.7 |